Wolf Creek, OR

1:40 PM PDT on August 27, 2016 (GMT -0700)
Sexton Summit

Weather History for KSXT - September, 2013

Change the Weather History Date:

Wednesday, September 25, 2013

  Actual Average Record
Temperature  
Mean Temperature 39 °F -  
Max Temperature 44 °F 66 °F 82 °F (2003)
Min Temperature 35 °F 48 °F 35 °F (2013)
Degree Days  
Heating Degree Days 26    
Moisture  
Dew Point 39 °F    
Average Humidity 99    
Maximum Humidity 100    
Minimum Humidity 93    
Precipitation  
Precipitation 0.17 in - - ()
Sea Level Pressure  
Sea Level Pressure 29.94 in    
Wind  
Wind Speed 3 mph (NW)    
Max Wind Speed 6 mph    
Max Gust Speed -    
Visibility 1 miles    
Events Fog , Rain    
Averages and records for this station are not official NWS values.
T = Trace of Precipitation, MM = Missing Value Source: NWS Daily Summary

Daily Weather History Graph

Daily Weather History Graph

Search for Another Location

Airport or City:

Trip Planner

Search our weather history database for the weather conditions in past years. The results will help you decide how hot, cold, wet, or windy it might be!

Date:

Astronomy

Sep. 25, 2013 Rise Set
Actual Time 7:04 AM PDT 7:04 PM PDT
Civil Twilight 6:36 AM PDT 7:32 PM PDT
Nautical Twilight 6:03 AM PDT 8:05 PM PDT
Astronomical Twilight 5:29 AM PDT 8:39 PM PDT
Moon 11:09 PM PDT (9/25) 1:21 PM PDT (9/25)
Length of Visible Light 12h 56m
Length of Day
12h 00m
Waning Gibbous, 63% of the Moon is Illuminated
Sep 25
Waning Gibbous
Sep 26
Last Quarter
Oct 4
New
Oct 11
First Quarter
Oct 18
Full

Hourly Weather History & Observations

Time (PDT) Temp. Windchill Dew Point Humidity Pressure Visibility Wind Dir Wind Speed Gust Speed Precip Events Conditions
12:08 AM 37.4 °F 33.8 °F 37.4 °F 100% 29.91 in 0.8 mi Variable 4.6 mph - N/A   Overcast
12:19 AM 37.4 °F 32.8 °F 37.4 °F 100% 29.91 in 1.2 mi Variable 5.8 mph - N/A   Overcast
12:39 AM 37.4 °F 33.8 °F 37.4 °F 100% 29.91 in 0.8 mi Variable 4.6 mph - N/A   Overcast
12:56 AM 37.0 °F 33.3 °F 37.0 °F 100% 29.91 in 0.8 mi Variable 4.6 mph - N/A   Overcast
1:01 AM 37.4 °F 33.8 °F 37.4 °F 100% 29.91 in 1.5 mi Variable 4.6 mph - N/A   Overcast
1:08 AM 37.4 °F 34.9 °F 37.4 °F 100% 29.91 in 0.8 mi Variable 3.5 mph - N/A   Overcast
1:52 AM 37.4 °F - 37.4 °F 100% 29.91 in 0.8 mi Calm Calm - N/A   Overcast
1:56 AM 37.9 °F 35.5 °F 37.9 °F 100% 29.91 in 0.8 mi Variable 3.5 mph - N/A   Overcast
2:06 AM 37.4 °F 34.9 °F 37.4 °F 100% 29.91 in 0.5 mi Variable 3.5 mph - N/A Fog Fog
2:16 AM 37.4 °F 34.9 °F 37.4 °F 100% 29.90 in 0.2 mi WSW 3.5 mph - N/A Fog Fog
2:21 AM 37.4 °F 33.8 °F 37.4 °F 100% 29.90 in 0.5 mi Variable 4.6 mph - N/A Fog Fog
2:29 AM 37.4 °F - 37.4 °F 100% 29.90 in 3.0 mi Calm Calm - N/A   Overcast
2:34 AM 37.4 °F 33.8 °F 37.4 °F 100% 29.90 in 2.5 mi Variable 4.6 mph - N/A   Overcast
2:42 AM 37.4 °F 34.9 °F 37.4 °F 100% 29.90 in 1.2 mi Variable 3.5 mph - N/A   Overcast
2:49 AM 37.4 °F 34.9 °F 37.4 °F 100% 29.90 in 0.5 mi Variable 3.5 mph - N/A Fog Fog
2:56 AM 37.0 °F 34.5 °F 37.0 °F 100% 29.91 in 0.5 mi Variable 3.5 mph - N/A Fog Fog
3:30 AM 37.4 °F 34.9 °F 37.4 °F 100% 29.90 in 1.2 mi Variable 3.5 mph - N/A   Overcast
3:39 AM 37.4 °F 32.8 °F 37.4 °F 100% 29.90 in 0.8 mi NW 5.8 mph - N/A   Overcast
3:56 AM 37.0 °F 34.5 °F 37.0 °F 100% 29.91 in 0.5 mi Variable 3.5 mph - N/A Fog Fog
4:14 AM 37.4 °F 34.9 °F 35.6 °F 93% 29.90 in 1.5 mi Variable 3.5 mph - N/A   Overcast
4:17 AM 37.4 °F 32.8 °F 35.6 °F 93% 29.90 in 3.0 mi Variable 5.8 mph - N/A   Overcast
4:21 AM 35.6 °F 31.7 °F 35.6 °F 100% 29.90 in 2.5 mi NW 4.6 mph - N/A   Overcast
4:29 AM 37.4 °F 34.9 °F 37.4 °F 100% 29.90 in 1.2 mi Variable 3.5 mph - N/A   Overcast
4:37 AM 37.4 °F - 37.4 °F 100% 29.90 in 1.2 mi Calm Calm - N/A   Overcast
4:47 AM 37.4 °F 34.9 °F 37.4 °F 100% 29.90 in 0.5 mi Variable 3.5 mph - 0.00 in Fog Fog
4:56 AM 37.0 °F - 37.0 °F 100% 29.91 in 0.5 mi Calm Calm - 0.01 in Fog Fog
5:56 AM 37.0 °F - 37.0 °F 100% 29.92 in 0.2 mi Calm Calm - 0.00 in Fog Fog
6:13 AM 35.6 °F 31.7 °F 35.6 °F 100% 29.90 in 0.8 mi Variable 4.6 mph - N/A   Overcast
6:20 AM 35.6 °F 31.7 °F 35.6 °F 100% 29.90 in 1.5 mi Variable 4.6 mph - N/A   Overcast
6:22 AM 35.6 °F 31.7 °F 35.6 °F 100% 29.90 in 2.0 mi Variable 4.6 mph - N/A   Overcast
6:25 AM 35.6 °F 31.7 °F 35.6 °F 100% 29.90 in 3.0 mi Variable 4.6 mph - N/A   Overcast
6:31 AM 35.6 °F 31.7 °F 35.6 °F 100% 29.90 in 2.0 mi NW 4.6 mph - N/A   Overcast
6:35 AM 35.6 °F 32.8 °F 35.6 °F 100% 29.90 in 1.2 mi Variable 3.5 mph - N/A   Overcast
6:47 AM 35.6 °F - 35.6 °F 100% 29.91 in 0.5 mi Calm Calm - N/A Fog Fog
6:56 AM 37.0 °F 34.5 °F 37.0 °F 100% 29.93 in 0.5 mi Variable 3.5 mph - N/A Fog Fog
7:08 AM 35.6 °F 32.8 °F 35.6 °F 100% 29.91 in 0.5 mi Variable 3.5 mph - N/A Fog Fog
7:26 AM 35.6 °F 32.8 °F 35.6 °F 100% 29.91 in 0.5 mi NW 3.5 mph - N/A Fog Fog
7:40 AM 35.6 °F - 35.6 °F 100% 29.91 in 0.2 mi Calm Calm - N/A Fog Fog
7:56 AM 37.0 °F - 37.0 °F 100% 29.94 in 0.2 mi Calm Calm - N/A Fog Fog
8:13 AM 37.4 °F - 37.4 °F 100% 29.92 in 0.2 mi Calm Calm - N/A Fog Fog
8:29 AM 37.4 °F - 37.4 °F 100% 29.92 in 0.2 mi Calm Calm - N/A Fog Fog
8:56 AM 37.9 °F - 37.9 °F 100% 29.95 in 0.2 mi Calm Calm - N/A Fog Fog
9:56 AM 39.0 °F - 39.0 °F 100% 29.96 in 0.2 mi Calm Calm - 0.00 in Fog Fog
10:11 AM 39.2 °F 37.0 °F 39.2 °F 100% 29.94 in 0.5 mi Variable 3.5 mph - 0.01 in Fog Fog
10:42 AM 39.2 °F 37.0 °F 39.2 °F 100% 29.93 in 1.5 mi Variable 3.5 mph - 0.01 in   Overcast
10:49 AM 39.2 °F 37.0 °F 39.2 °F 100% 29.94 in 3.0 mi Variable 3.5 mph - 0.01 in   Overcast
10:56 AM 39.9 °F - 39.0 °F 97% 29.96 in 1.8 mi Calm Calm - 0.01 in   Mostly Cloudy
11:02 AM 39.2 °F - 39.2 °F 100% 29.93 in 4.0 mi Calm Calm - N/A   Overcast
11:05 AM 39.2 °F - 39.2 °F 100% 29.94 in 2.0 mi Calm Calm - N/A   Overcast
11:08 AM 39.2 °F - 39.2 °F 100% 29.94 in 1.2 mi Calm Calm - 0.00 in Rain Light Rain
11:11 AM 39.2 °F 35.9 °F 39.2 °F 100% 29.94 in 0.8 mi NNW 4.6 mph - 0.00 in Rain Light Rain
11:27 AM 37.4 °F 33.8 °F 37.4 °F 100% 29.94 in 0.2 mi Variable 4.6 mph - 0.05 in Fog , Rain Light Rain
11:38 AM 39.2 °F 37.0 °F 39.2 °F 100% 29.94 in 0.2 mi Variable 3.5 mph - 0.05 in Fog , Rain Light Rain
11:56 AM 42.1 °F - 41.0 °F 96% 29.96 in 0.2 mi Calm Calm - 0.05 in Fog Fog
12:21 PM 42.8 °F - 42.8 °F 100% 29.94 in 0.5 mi Calm Calm - N/A Fog Fog
12:30 PM 41.0 °F - 41.0 °F 100% 29.94 in 1.5 mi Calm Calm - N/A   Mostly Cloudy
12:33 PM 41.0 °F - 41.0 °F 100% 29.94 in 3.0 mi Calm Calm - N/A   Mostly Cloudy
12:47 PM 42.8 °F 41.1 °F 41.0 °F 93% 29.94 in 8.0 mi NNW 3.5 mph - N/A   Mostly Cloudy
12:54 PM 41.0 °F - 39.2 °F 93% 29.94 in 1.5 mi Calm Calm - 0.00 in Rain Light Rain
12:56 PM 42.1 °F - 41.0 °F 96% 29.96 in 0.8 mi Calm Calm - 0.00 in Rain Light Rain
1:01 PM 42.8 °F - 42.8 °F 100% 29.94 in 0.5 mi Calm Calm - 0.00 in Fog , Rain Light Rain
1:08 PM 41.0 °F - 41.0 °F 100% 29.94 in 0.2 mi Calm Calm - 0.00 in Fog , Rain Light Rain
1:23 PM 39.2 °F 37.0 °F 39.2 °F 100% 29.93 in 0.2 mi Variable 3.5 mph - 0.00 in Fog Fog
1:33 PM 42.8 °F - 42.8 °F 100% 29.94 in 0.2 mi Calm Calm - 0.00 in Fog Fog
1:39 PM 42.8 °F 41.1 °F 42.8 °F 100% 29.94 in 1.2 mi Variable 3.5 mph - 0.00 in   Mostly Cloudy
1:41 PM 42.8 °F 41.1 °F 42.8 °F 100% 29.94 in 3.0 mi Variable 3.5 mph - 0.00 in   Mostly Cloudy
1:53 PM 42.8 °F 41.1 °F 42.8 °F 100% 29.94 in 10.0 mi Variable 3.5 mph - 0.00 in   Mostly Cloudy
1:56 PM 42.1 °F 40.2 °F 42.1 °F 100% 29.96 in 10.0 mi Variable 3.5 mph - 0.00 in   Mostly Cloudy
2:33 PM 41.0 °F 39.0 °F 39.2 °F 93% 29.94 in 2.5 mi Variable 3.5 mph - 0.00 in Rain Light Rain
2:37 PM 39.2 °F - 39.2 °F 100% 29.94 in 1.2 mi Calm Calm - 0.01 in Rain Light Rain
2:45 PM 42.8 °F - 41.0 °F 93% 29.94 in 0.5 mi Calm Calm - 0.01 in Fog Fog
2:48 PM 42.8 °F - 42.8 °F 100% 29.94 in 1.0 mi Calm Calm - 0.01 in   Overcast
2:51 PM 42.8 °F - 42.8 °F 100% 29.94 in 2.0 mi Calm Calm - 0.01 in   Mostly Cloudy
2:56 PM 43.0 °F - 42.1 °F 97% 29.96 in 7.0 mi Calm Calm - 0.01 in   Mostly Cloudy
3:19 PM 41.0 °F 37.1 °F 41.0 °F 100% 29.94 in 1.0 mi Variable 5.8 mph - 0.00 in Rain Light Rain
3:23 PM 39.2 °F 35.0 °F 39.2 °F 100% 29.94 in 0.2 mi North 5.8 mph - 0.02 in Fog , Rain Light Rain
3:56 PM 42.1 °F 38.4 °F 41.0 °F 96% 29.96 in 0.2 mi Variable 5.8 mph - 0.04 in Fog Fog
4:34 PM 42.8 °F 41.1 °F 42.8 °F 100% 29.96 in 0.5 mi Variable 3.5 mph - N/A Fog Fog
4:42 PM 42.8 °F - 42.8 °F 100% 29.96 in 0.5 mi Calm Calm - N/A Fog Fog
4:56 PM 42.1 °F 39.2 °F 42.1 °F 100% 29.98 in 0.5 mi Variable 4.6 mph - N/A Fog Fog
5:04 PM 41.0 °F - 41.0 °F 100% 29.96 in 0.2 mi Calm Calm - 0.00 in Fog , Rain Light Rain
5:17 PM 41.0 °F 38.0 °F 41.0 °F 100% 29.96 in 0.2 mi Variable 4.6 mph - 0.00 in Fog , Rain Light Rain
5:56 PM 39.0 °F 36.8 °F 39.0 °F 100% 30.00 in 0.2 mi Variable 3.5 mph - 0.00 in Fog , Rain Light Rain
6:40 PM 39.2 °F - 39.2 °F 100% 29.97 in 0.2 mi Calm Calm - 0.00 in Fog Fog
6:56 PM 39.0 °F 36.8 °F 39.0 °F 100% 30.01 in 0.2 mi Variable 3.5 mph - 0.00 in Fog Fog
7:21 PM 37.4 °F 33.8 °F 37.4 °F 100% 29.98 in 0.5 mi Variable 4.6 mph - N/A Fog Fog
7:35 PM 37.4 °F 33.8 °F 37.4 °F 100% 29.98 in 0.2 mi Variable 4.6 mph - N/A Fog Fog
7:48 PM 37.4 °F 34.9 °F 37.4 °F 100% 29.99 in 0.5 mi Variable 3.5 mph - N/A Fog Fog
7:56 PM 37.9 °F 35.5 °F 37.9 °F 100% 30.02 in 0.2 mi Variable 3.5 mph - N/A Fog Fog
8:56 PM 39.0 °F - 39.0 °F 100% 30.03 in 0.2 mi Calm Calm - N/A Fog Fog
9:27 PM 39.2 °F - 39.2 °F 100% 30.01 in 0.2 mi Calm Calm - 0.03 in Fog , Rain Light Rain
9:56 PM 37.9 °F - 37.9 °F 100% 30.04 in 0.2 mi Calm Calm - 0.05 in Fog Fog
10:56 PM 39.0 °F - 39.0 °F 100% 30.04 in 0.2 mi Calm Calm - N/A Fog Fog
11:56 PM 39.0 °F - 39.0 °F 100% 30.04 in 0.5 mi Calm Calm - N/A Fog Fog